Simultaneous Nadir Overpasses (SNOs) Predictions

Prediction of SNOs between FY3D and METOP-C Satellite Orbit:

Table of predicted SNOs for the next 14.0 days since TLE Epoch: 3/22/2025
Index Date (FY3D) Time (FY3D) Lat,Lon (FY3D) SZA (FY3D ) Date (METOP-C) Time (METOP-C) Lat,Lon (METOP-C) SZA (METOP-C ) Distance(km) Time Diff (sec)
1 03/28/2025 16:05:13 77.20, -60.60 73.86 03/28/2025 16:06:18 77.18, -57.00 73.87 88.78 65
2 03/28/2025 16:55:55 -77.11, 107.12 106.25 03/28/2025 16:57:02 -77.09, 109.97 106.24 70.69 67
3 03/28/2025 17:46:35 76.87, -84.55 73.51 03/28/2025 17:47:47 76.85, -83.68 73.50 22.09 72
4 03/28/2025 18:37:17 -76.78, 83.15 106.60 03/28/2025 18:38:31 -76.77, 83.31 106.61 4.38 74
5 03/28/2025 19:28:02 76.75,-109.44 73.37 03/28/2025 19:29:11 76.74,-109.44 73.36 1.20 69
6 03/28/2025 20:18:46 -76.75, 57.90 106.66 03/28/2025 20:19:53 -76.75, 57.90 106.66 0.31 67
7 03/28/2025 21:09:31 76.73,-134.69 73.31 03/28/2025 21:10:33 76.72,-134.86 73.31 4.31 62
8 03/28/2025 22:00:16 -76.76, 32.47 106.67 03/28/2025 22:01:15 -76.73, 32.48 106.71 4.13 59
9 03/28/2025 22:51:01 76.74,-160.12 73.30 03/28/2025 22:51:54 76.75,-160.11 73.31 1.02 53
10 03/28/2025 23:41:45 -76.74, 7.21 106.73 03/28/2025 23:42:36 -76.75, 7.23 106.71 1.88 51
11 03/29/2025 00:32:31 76.75, 174.45 73.28 03/29/2025 00:33:16 76.73, 174.48 73.26 2.99 45
12 03/29/2025 01:23:15 -76.75, -18.22 106.74 03/29/2025 01:23:58 -76.73, -18.18 106.76 2.17 43
13 03/29/2025 02:14:00 76.73, 149.20 73.23 03/29/2025 02:14:37 76.75, 149.23 73.26 3.19 37
14 03/29/2025 03:04:44 -76.72, -43.47 106.80 03/29/2025 03:05:20 -76.71, -43.60 106.80 3.50 36
15 03/29/2025 03:55:30 76.74, 123.77 73.21 03/29/2025 03:55:59 76.73, 123.81 73.21 1.46 29
16 03/29/2025 04:46:14 -76.74, -68.90 106.81 03/29/2025 04:46:41 -76.74, -68.85 106.81 1.36 27
17 03/29/2025 05:36:59 76.71, 98.51 73.16 03/29/2025 05:37:21 76.71, 98.40 73.16 2.99 22
18 03/29/2025 06:27:43 -76.71, -94.15 106.86 03/29/2025 06:28:03 -76.72, -94.26 106.86 3.02 20
19 03/29/2025 07:18:29 76.72, 73.08 73.15 03/29/2025 07:18:42 76.74, 73.15 73.16 2.18 13
20 03/29/2025 08:09:13 -76.72,-119.58 106.88 03/29/2025 08:09:24 -76.74,-119.51 106.86 2.90 11
21 03/29/2025 08:59:59 76.74, 47.65 73.13 03/29/2025 09:00:04 76.72, 47.73 73.11 3.27 5
22 03/29/2025 09:50:43 -76.74,-145.01 106.89 03/29/2025 09:50:46 -76.72,-144.93 106.91 2.75 3
23 03/29/2025 10:41:28 76.71, 22.40 73.08 03/29/2025 10:41:26 76.70, 22.31 73.06 2.66 2
24 03/29/2025 11:32:12 -76.71,-170.27 106.95 03/29/2025 11:32:08 -76.70,-170.35 106.95 2.07 4
25 03/29/2025 12:22:58 76.72, -3.03 73.06 03/29/2025 12:22:47 76.72, -2.93 73.06 2.60 11
26 03/29/2025 13:13:42 -76.72, 164.30 106.96 03/29/2025 13:13:29 -76.72, 164.41 106.96 2.77 13
27 03/29/2025 14:04:27 76.70, -28.29 73.01 03/29/2025 14:04:09 76.70, -28.35 73.01 1.72 18
28 03/29/2025 14:55:11 -76.69, 139.05 107.02 03/29/2025 14:54:51 -76.70, 138.99 107.00 2.01 20
29 03/29/2025 15:45:57 76.71, -53.72 72.99 03/29/2025 15:45:30 76.72, -53.60 73.01 3.47 27
30 03/29/2025 16:36:41 -76.71, 113.62 107.03 03/29/2025 16:36:13 -76.68, 113.57 107.05 2.68 28
31 03/29/2025 17:27:26 76.68, -78.97 72.94 03/29/2025 17:26:52 76.70, -79.01 72.96 2.82 34
32 03/29/2025 18:18:10 -76.68, 88.36 107.08 03/29/2025 18:17:34 -76.71, 88.33 107.05 3.59 36
33 03/29/2025 19:08:56 76.70,-104.40 72.92 03/29/2025 19:08:14 76.68,-104.43 72.91 1.52 42
34 03/29/2025 19:59:40 -76.69, 62.93 107.10 03/29/2025 19:58:56 -76.69, 62.91 107.10 0.69 44
35 03/29/2025 20:50:26 76.71,-129.83 72.91 03/29/2025 20:49:35 76.71,-129.68 72.91 3.91 51
36 03/29/2025 21:41:10 -76.71, 37.50 107.11 03/29/2025 21:40:17 -76.71, 37.66 107.11 4.18 53
37 03/29/2025 22:31:54 76.68,-155.09 72.86 03/29/2025 22:30:56 76.69,-155.10 72.86 0.81 58
38 03/29/2025 23:22:38 -76.68, 12.25 107.17 03/29/2025 23:21:38 -76.69, 12.25 107.15 1.66 60
39 03/30/2025 00:13:24 76.70, 179.48 72.84 03/30/2025 00:12:18 76.67, 179.49 72.81 3.13 66
40 03/30/2025 01:04:08 -76.69, -13.18 107.18 03/30/2025 01:03:00 -76.67, -13.17 107.20 2.23 68
41 03/30/2025 01:54:53 76.67, 154.23 72.79 03/30/2025 01:53:39 76.69, 154.24 72.81 2.81 74
42 03/30/2025 02:45:37 -76.66, -38.44 107.24 03/30/2025 02:44:22 -76.65, -38.59 107.25 4.07 75
43 03/30/2025 03:36:16 76.37, 130.00 72.48 03/30/2025 03:35:08 76.36, 127.65 72.44 61.74 68
44 03/30/2025 04:26:59 -76.33, -62.50 107.59 03/30/2025 04:25:51 -76.32, -65.16 107.62 70.05 68



Historial Predications of SNOs between FY3D and METOP-C
